Tracking 29892 objects as of 21-Nov-2024
HD Live streaming from Space Station
objects crossing your sky now

THORAD AGENA D DEB

Track THORAD AGENA D DEB now!
10-day predictions


NORAD ID: 4773
Int'l Code: 1970-025DT
Perigee: 1,032.7 km
Apogee: 1,078.6 km
Inclination: 100.1 °
Period: 106.2 minutes
Semi major axis: 7426 km
RCS: 0.0892 m2 (small)
Launch date: April 8, 1970
Source: United States (US)
Launch site: AIR FORCE WESTERN TEST RANGE (AFWTR)

Note: This is SATELLITE DEBRIS
Your satellite tracking list
Your tracking list is empty




NASA's NSSDC Master Catalog

Two Line Element Set (TLE):
1 04773U 70025DT  24325.78023267  .00000668  00000-0  10116-2 0  9997
2 04773 100.0956 354.2290 0030913 235.2759 173.7530 13.56485720690336
Source of the keplerian elements: AFSPC